STARLINK-32844, 62820

Orbit data source: Space-Track

STARLINK-32844, 62820 is a payload satellite owned by SpaceX/Seattle (US) in LEO that was launched on Fri, 24 Jan 2025 UTC via an FALCON 9 launch vehicle from the Air Force Western Test Range (AFWTR). Payload-class satellites include a variety of spacecraft equipped with specific instruments for various scientific and technological missions. These include communications satellites like Starlink; space stations such as the ISS; scientific satellites like the Hubble; Earth observation satellites from companies like Planet Labs, Umbra, and HawkEye 360; GPS; miniature CubeSats for education and research; and military/defense satellites.

Loading next visibility...
Identifier
62820, 2025-018Q
Orbit
LEO
Country
Flag of USUS
Related business
Manufacturer
SpaceX/Seattle
Mission
Operational Commercial Communications
Bus & Motor
STARLINK V2M, Unknown motor
Mass
730 kg wet, ~700 kg dry
Launch date (UTC)
2025-01-24 (9 months ago)
Launch vehicle
FALCON 9
Launch site
Air Force Western Test Range (AFWTR)
Object type
Payload
Rocket body
Debris
Shape & HBR
Box + 2 Pan, 17.7 m
Radar Cross Section
33.884 m², Large (>1 m²)

Expand to show TLE details & history
Last TLE update: 15 hours ago

TLE from 15 hours ago
0 STARLINK-32844
1 62820U 25018Q   25288.66158276  .00029109  00000-0  99077-3 0  9996
2 62820  53.1598 263.2556 0001270  86.0120 274.1026 15.30210253 40960
Epoch: 2025-10-15T15:52Z
TLE epoch observation values (Epoch: 2025-10-15T15:52:40.750Z)
Latitude
-0.00002°
Longitude
0.65335°
Altitude
476.022 km
Speed
7.629 km/s
True Right ascension
17h 33m 01s
True Declination
0° 00' 00"
Sunlit
Object was in daylight at epoch
Visualization orbit readout
Latitude
Unknown
Longitude
Unknown
Altitude
Unknown
Speed
Unknown
Apparent Right ascension
Unknown
Apparent Declination
Unknown
Sunlit
N/A
Visualization observer readout
Local Sidereal Time
01:13:28
Azimuth
Unknown
Elevation
Unknown
Doppler factor
Unknown
Orbital elements
Apogee altitude
476.311 km
Perigee altitude
474.571 km
Semi-major axis
6,853.578 km
Eccentricity
0.00013
Inclination
53.1598°
RAAN
263.2556°
Arg. of periapsis
86.012°
True anomaly
274.08808°
Mean anomaly
274.1026°
Eccentric anomaly
274.09534°
Mean motion
3.82531 °/min
Orbital period
94.11 mins
BSTAR
0.00099077
Loading maneuver chart data...
Computing Atmospheric mass density...
Loading historical data...
Loading historical data...
Loading historical data...
Loading historical data...
Loading historical data...
Loading historical data...
Loading historical data...

Documentation

Showing up to 5 results
|